Aurora, IL

6:01 AM CST on January 17, 2018 (GMT -0600)
Aurora Municipal

Weather History for KARR - June, 2013

Change the Weather History Date:

Saturday, June 15, 2013

  Actual Average Record
Temperature  
Mean Temperature 70 °F 69 °F  
Max Temperature 80 °F 80 °F 93 °F (2012)
Min Temperature 59 °F 58 °F 49 °F (1999)
Degree Days  
Heating Degree Days 0 1  
Month to date heating degree days 43 32  
Since 1 June heating degree days 43 32  
Since 1 July heating degree days 6697 6766  
Cooling Degree Days 5 5  
Month to date cooling degree days 37 60  
Year to date cooling degree days 117 101  
Since 1 June cooling degree days 37 60  
Growing Degree Days 20 (Base 50)    
Moisture  
Dew Point 62 °F    
Average Humidity 76    
Maximum Humidity 90    
Minimum Humidity 62    
Precipitation  
Precipitation 0.02 in 0.13 in 2.86 in (2015)
Month to date precipitation 2.49 2.46  
Year to date precipitation 19.35 15.34  
Sea Level Pressure  
Sea Level Pressure 29.96 in    
Wind  
Wind Speed 7 mph (South)    
Max Wind Speed 32 mph    
Max Gust Speed 44 mph    
Visibility 10 miles    
Events Rain , Thunderstorm    
T = Trace of Precipitation, MM = Missing Value Source: NWS Daily Summary

Daily Weather History Graph

Daily Weather History Graph

Search for Another Location

Airport or City:

Trip Planner

Search our weather history database for the weather conditions in past years. The results will help you decide how hot, cold, wet, or windy it might be!

Date:

Astronomy

Jun. 15, 2013 Rise Set
Actual Time 5:18 AM CDT 8:30 PM CDT
Civil Twilight 4:44 AM CDT 9:04 PM CDT
Nautical Twilight 4:00 AM CDT 9:48 PM CDT
Astronomical Twilight 3:07 AM CDT 10:41 PM CDT
Moon 11:58 AM CDT (6/15) 12:01 AM CDT (6/15)
Length of Visible Light 16h 20m
Length of Day
15h 12m
Waxing Crescent, 40% of the Moon is Illuminated
Jun 15
Waxing Crescent
Jun 16
First Quarter
Jun 23
Full
Jun 29
Last Quarter
Jul 8
New

Hourly Weather History & Observations

Time (CDT) Temp. Heat Index Dew Point Humidity Pressure Visibility Wind Dir Wind Speed Gust Speed Precip Events Conditions
12:52 AM 59.0 °F - 51.1 °F 75% 30.04 in 10.0 mi SE 4.6 mph - N/A   Clear
1:52 AM 59.0 °F - 53.1 °F 81% 30.04 in 10.0 mi Calm Calm - N/A   Clear
2:52 AM 59.0 °F - 53.1 °F 81% 30.02 in 10.0 mi Calm Calm - N/A   Clear
3:52 AM 59.0 °F - 55.0 °F 87% 30.04 in 10.0 mi Calm Calm - N/A   Scattered Clouds
4:52 AM 61.0 °F - 55.9 °F 83% 30.06 in 10.0 mi Calm Calm - N/A   Overcast
5:52 AM 61.0 °F - 57.0 °F 87% 30.04 in 9.0 mi East 5.8 mph - N/A   Overcast
6:52 AM 64.0 °F - 57.9 °F 80% 30.01 in 9.0 mi ESE 9.2 mph - N/A   Mostly Cloudy
7:52 AM 66.0 °F - 60.1 °F 81% 29.97 in 9.0 mi ESE 10.4 mph - N/A   Mostly Cloudy
8:52 AM 66.9 °F - 60.1 °F 79% 29.99 in 10.0 mi SE 3.5 mph - 0.00 in   Overcast
9:52 AM 68.0 °F - 62.1 °F 81% 30.01 in 10.0 mi SW 3.5 mph - 0.00 in Rain Light Rain
10:52 AM 66.9 °F - 62.1 °F 84% 30.02 in 8.0 mi Calm Calm - 0.00 in Rain Light Rain
11:52 AM 69.1 °F - 64.9 °F 87% 29.99 in 9.0 mi SE 8.1 mph - 0.02 in   Mostly Cloudy
12:52 PM 73.9 °F - 64.0 °F 71% 29.98 in 10.0 mi South 11.5 mph - 0.00 in   Clear
1:52 PM 75.0 °F - 64.9 °F 71% 29.97 in 10.0 mi SSW 10.4 mph - N/A   Clear
2:52 PM 78.1 °F - 66.0 °F 66% 29.97 in 10.0 mi SSW 8.1 mph - N/A   Partly Cloudy
3:52 PM 80.1 °F 82.3 °F 66.9 °F 64% 29.95 in 10.0 mi Calm Calm - N/A   Partly Cloudy
4:52 PM 79.0 °F - 66.9 °F 66% 29.91 in 10.0 mi South 4.6 mph - N/A   Clear
5:52 PM 79.0 °F - 68.0 °F 69% 29.89 in 10.0 mi South 8.1 mph - N/A   Partly Cloudy
6:52 PM 77.0 °F - 66.9 °F 71% 29.87 in 10.0 mi SSW 5.8 mph - N/A   Clear
7:52 PM 75.9 °F - 66.9 °F 74% 29.87 in 10.0 mi South 6.9 mph - N/A   Clear
8:52 PM 75.0 °F - 66.0 °F 73% 29.88 in 10.0 mi SW 12.7 mph - N/A   Clear
9:52 PM 73.9 °F - 66.0 °F 76% 29.91 in 10.0 mi SW 10.4 mph - N/A   Mostly Cloudy
10:09 PM 73.4 °F - 66.2 °F 78% 29.92 in 10.0 mi WSW 10.4 mph - N/A Thunderstorm Mostly Cloudy
10:32 PM 73.4 °F - 66.2 °F 78% 29.91 in 10.0 mi SW 15.0 mph 20.7 mph N/A   Scattered Clouds
10:52 PM 73.0 °F - 66.0 °F 79% 29.90 in 10.0 mi SW 11.5 mph - N/A   Partly Cloudy
11:52 PM 71.1 °F - 64.0 °F 78% 29.91 in 10.0 mi WSW 25.3 mph 39.1 mph N/A   Overcast